This demonstration page uses our WeatherBlox Daily Observations layout. Learn more.

40.92945, -100.16068

Hourly Observations for October 1, 2019

Temp ( °F °C ) Dew Point ( °F °C ) Humidity (%) Winds ( mph kmh ) Pressure ( in mb ) Visibility ( mi km ) Precip ( " mm )
12:15 am 00:15 Cloudy 60 15.5 58 14.7 95 95 NE 10 17 29.83 1010 10 16.0934 0 0
12:35 am 00:35 Cloudy 60 15.3 58 14.7 96 96 NE 13 20 29.82 1010 10 16.0934 0 0
12:55 am 00:55 Cloudy 59 15.2 58 14.6 96 96 NE 10 17 29.83 1010 10 16.0934 0 0
1:15 am 01:15 Cloudy 59 15.2 58 14.6 96 96 NE 10 17 29.83 1010 10 16.0934 0 0
1:35 am 01:35 Cloudy 59 15 58 14.3 96 96 NE 10 17 29.85 1011 10 16.0934 0 0
1:55 am 01:55 Cloudy 59 14.8 57 14.1 96 96 NE 14 22 29.84 1010 10 16.0934 0 0
2:15 am 02:15 Cloudy 58 14.7 57 14 96 96 NE 9 15 29.84 1010 10 16.0934 0 0
2:35 am 02:35 Cloudy 58 14.6 57 14 96 96 NE 10 17 29.85 1011 10 16.0934 0 0
2:55 am 02:55 Cloudy 58 14.5 57 13.8 96 96 NE 15 24 29.84 1011 10 16.0934 0 0
3:15 am 03:15 Cloudy 58 14.3 56 13.6 96 96 NE 12 19 29.85 1011 10 16.0934 0 0
3:35 am 03:35 Cloudy 58 14.2 56 13.5 96 96 NE 10 17 29.86 1011 10 16.0934 0 0
3:55 am 03:55 Cloudy 57 14 56 13.5 97 97 NNE 14 22 29.85 1011 10 16.0934 0 0
4:15 am 04:15 Cloudy 56 13.2 55 12.9 98 98 NE 15 24 29.87 1012 10 16.0934 0 0
4:35 am 04:35 Cloudy 55 12.9 54 12.4 97 97 NE 15 24 29.87 1012 10 16.0934 0 0
4:55 am 04:55 Cloudy 55 12.7 53 11.5 92 92 NE 13 20 29.9 1012 10 16.0934 0 0
5:15 am 05:15 Cloudy 55 12.5 53 11.4 93 93 NE 10 17 29.9 1012 10 16.0934 0 0
5:35 am 05:35 Cloudy 53 11.6 52 11.2 97 97 NNE 12 19 29.92 1013 7 11.26538 0 0
5:55 am 05:55 Cloudy with Light Rain 53 11.6 52 11.1 97 97 NE 13 20 29.91 1013 10 16.0934 0 0
6:15 am 06:15 Cloudy 53 11.5 52 11 97 97 NE 10 17 29.91 1013 10 16.0934 0 0
6:35 am 06:35 Cloudy 52 11.3 51 10.8 97 97 NE 15 24 29.91 1013 10 16.0934 0 0
6:55 am 06:55 Cloudy 52 11.2 51 10.6 96 96 NE 13 20 29.91 1013 10 16.0934 0 0
7:15 am 07:15 Cloudy 52 11.2 51 10.5 96 96 NE 13 20 29.91 1013 10 16.0934 0 0
7:35 am 07:35 Cloudy 52 11.3 51 10.6 96 96 NNE 9 15 29.92 1013 10 16.0934 0 0
7:55 am 07:55 Cloudy 52 11.2 51 10.7 97 97 NNE 10 17 29.92 1013 7 11.26538 0 0
8:15 am 08:15 Cloudy with Mist and Fog 51 10.8 51 10.5 98 98 NE 13 20 29.92 1013 4 6.43736 0 0
8:35 am 08:35 Cloudy with Mist and Fog 51 10.6 51 10.5 99 99 NE 7 11 29.95 1014 3 4.82802 0 0
8:55 am 08:55 Cloudy with Light Rain 51 10.5 50 10.2 98 98 NNE 12 19 29.95 1014 3 4.82802 0 0
9:15 am 09:15 Cloudy with Mist and Fog 51 10.3 50 10 98 98 NNE 12 19 29.94 1014 5 8.0467 0 0
9:35 am 09:35 Cloudy with Mist and Fog 51 10.3 50 10 98 98 NNE 13 20 29.95 1014 5 8.0467 0 0
9:55 am 09:55 Cloudy 51 10.5 50 10 97 97 NNE 13 20 29.94 1014 7 11.26538 0 0
10:15 am 10:15 Cloudy with Mist and Fog 51 10.4 50 9.9 97 97 NNE 16 26 29.95 1014 5 8.0467 0 0
10:35 am 10:35 Cloudy with Light Rain 50 10 50 9.8 99 99 NNE 12 19 29.97 1015 3 4.82802 0.01 0.254
10:55 am 10:55 Cloudy with Rain 50 9.9 49 9.7 99 99 NNE 12 19 29.96 1015 3 4.82802 0.02 0.508
11:15 am 11:15 Cloudy 50 10.1 50 10 99 99 NNE 10 17 29.96 1015 7 11.26538 0 0
11:35 am 11:35 Cloudy with Light Rain 50 10 49 9.4 96 96 NNE 13 20 29.96 1015 7 11.26538 0.01 0.254
11:55 am 11:55 Cloudy 50 10 49 9.6 97 97 NNE 9 15 29.96 1015 7 11.26538 0.01 0.254
12:15 pm 12:15 Cloudy 50 10 49 9.5 97 97 NNE 14 22 29.96 1015 10 16.0934 0 0
12:35 pm 12:35 Cloudy 50 9.8 49 9.4 97 97 NNE 12 19 29.96 1015 7 11.26538 0 0
12:55 pm 12:55 Cloudy with Mist and Fog 49 9.5 49 9.2 98 98 NNE 12 19 29.97 1015 5 8.0467 0 0
1:15 pm 13:15 Cloudy with Heavy Rain 49 9.3 48 8.9 97 97 NNE 12 19 29.96 1014 4 6.43736 0.06 1.524
1:35 pm 13:35 Cloudy with Rain 49 9.3 48 9.1 99 99 N 12 19 29.96 1014 5 8.0467 0.19 4.826
1:55 pm 13:55 Cloudy with Rain 49 9.3 48 9 98 98 N 10 17 29.97 1015 5 8.0467 0.22 5.588
2:15 pm 14:15 Cloudy with Nearby Thunderstorms 49 9.3 48 9 98 98 NNE 12 19 29.96 1014 4 6.43736 0.01 0.254
2:35 pm 14:35 Cloudy 49 9.2 48 9 99 99 N 10 17 29.94 1014 4 6.43736 0.06 1.524
2:55 pm 14:55 Cloudy with Nearby Thunderstorms 49 9.2 48 8.9 98 98 NNE 12 19 29.94 1014 7 11.26538 0.15 3.81
3:15 pm 15:15 Cloudy with Heavy Rain 48 9.1 48 9 99 99 N 8 13 29.95 1014 4 6.43736 0.08 2.032
3:35 pm 15:35 Cloudy with Rain 48 9 48 8.7 98 98 NNE 13 20 29.94 1014 4 6.43736 0.12 3.048
3:55 pm 15:55 Cloudy with Light Rain 48 9 47 8.6 97 97 NNE 9 15 29.95 1014 10 16.0934 0.13 3.302
4:15 pm 16:15 Cloudy with Rain 48 9.1 48 9 99 99 N 8 13 29.95 1014 10 16.0934 0.01 0.254
4:35 pm 16:35 Cloudy with Light Rain 49 9.5 48 8.9 96 96 NNE 9 15 29.95 1014 10 16.0934 0.02 0.508
4:55 pm 16:55 Cloudy 49 9.4 47 8.6 95 95 N 12 19 29.95 1014 10 16.0934 0.02 0.508
5:15 pm 17:15 Cloudy 49 9.5 47 8.6 94 94 N 12 19 29.96 1014 10 16.0934 0 0
5:35 pm 17:35 Cloudy with Rain 49 9.5 47 8.6 94 94 N 8 13 29.97 1015 10 16.0934 0 0
5:55 pm 17:55 Cloudy 48 9.1 47 8.4 95 95 N 13 20 29.97 1015 10 16.0934 0 0
6:15 pm 18:15 Cloudy with Light Rain 48 9 47 8.6 97 97 N 8 13 29.97 1015 5 8.0467 0.02 0.508
6:35 pm 18:35 Cloudy with Light Rain 48 8.8 47 8.5 98 98 N 13 20 29.96 1015 4 6.43736 0.04 1.016
6:55 pm 18:55 Cloudy 48 8.8 47 8.3 97 97 N 13 20 29.97 1015 7 11.26538 0.04 1.016
7:15 pm 19:15 Cloudy with Rain 48 8.8 47 8.3 97 97 N 10 17 29.98 1015 5 8.0467 0 0
7:35 pm 19:35 Cloudy 48 8.7 47 8.3 97 97 N 9 15 29.98 1015 10 16.0934 0 0
7:55 pm 19:55 Cloudy 48 8.7 47 8.1 96 96 N 12 19 29.98 1015 10 16.0934 0 0
8:15 pm 20:15 Cloudy 48 8.8 47 8.1 95 95 N 12 19 29.99 1016 10 16.0934 0 0
8:35 pm 20:35 Cloudy 48 8.7 46 8 95 95 NNE 10 17 29.99 1016 10 16.0934 0 0
8:55 pm 20:55 Cloudy 47 8.5 46 8 97 97 NNE 9 15 30.02 1016 10 16.0934 0 0
9:15 pm 21:15 Cloudy 47 8.5 46 7.7 95 95 N 12 19 30.04 1017 10 16.0934 0 0
9:35 pm 21:35 Cloudy 47 8.5 46 7.5 94 94 NNE 10 17 30.05 1017 10 16.0934 0 0
9:55 pm 21:55 Cloudy 47 8.2 46 7.6 96 96 NNE 10 17 30.05 1018 10 16.0934 0 0
10:15 pm 22:15 Cloudy 47 8.1 45 7.4 95 95 N 12 19 30.06 1018 10 16.0934 0 0
10:35 pm 22:35 Cloudy 46 8 45 7.3 95 95 NNE 9 15 30.05 1018 10 16.0934 0 0
10:55 pm 22:55 Cloudy 46 8 45 7.4 96 96 N 8 13 30.06 1018 10 16.0934 0 0
11:15 pm 23:15 Cloudy 46 8 46 7.5 97 97 N 8 13 30.07 1018 10 16.0934 0 0
11:35 pm 23:35 Cloudy 46 8 46 7.5 97 97 N 12 19 30.04 1017 10 16.0934 0 0
11:55 pm 23:55 Cloudy 46 8 46 7.6 97 97 N 10 17 30.04 1017 10 16.0934 0 0

Powered by AerisWeather